When you browse on this site, cookies collect data to enhance your experience and personalize the content and advertising you see.
Visit our Privacy Policy to learn more. By continuing to use the site, you agree to this use of cookies and data.

Hourly Weather Krasnenkoe

Today, 13 August, Thursday

Time Temperature Precipitation Wind Pressure Humidity
00:00 +9°C° 0 mm 2 mps 748 mmHg 85%
01:00 +8°C° 0 mm 2 mps 748 mmHg 88%
02:00 +7°C° 0 mm 2 mps 748 mmHg 93%
03:00 +8°C° 0 mm 2 mps 748 mmHg 92%
04:00 +8°C° 0 mm 2 mps 748 mmHg 90%
05:00 +8°C° 0 mm 2 mps 747 mmHg 88%
06:00 +10°C° 0 mm 2 mps 747 mmHg 82%
07:00 +12°C° 0 mm 2 mps 747 mmHg 76%
08:00 +13°C° 0 mm 3 mps 748 mmHg 68%
09:00 +14°C° 0 mm 3 mps 748 mmHg 62%
10:00 +16°C° 0 mm 3 mps 748 mmHg 55%
11:00 +17°C° 0 mm 3 mps 748 mmHg 49%
12:00 +17°C° 0 mm 3 mps 748 mmHg 52%
13:00 +17°C° 0 mm 3 mps 747 mmHg 55%
14:00 +16°C° 0 mm 3 mps 747 mmHg 59%
15:00 +16°C° 0 mm 3 mps 747 mmHg 62%
16:00 +16°C° 0 mm 3 mps 747 mmHg 65%
17:00 +15°C° 0 mm 2 mps 747 mmHg 68%
18:00 +14°C° 0 mm 2 mps 747 mmHg 75%
19:00 +12°C° 0 mm 2 mps 747 mmHg 82%
20:00 +11°C° 0 mm 1 mps 747 mmHg 89%
21:00 +11°C° 0 mm 1 mps 747 mmHg 90%
22:00 +10°C° 0 mm 1 mps 748 mmHg 91%
23:00 +10°C° 0 mm 1 mps 748 mmHg 92%

Tomorrow, 14 August, Friday

Time Temperature Precipitation Wind Pressure Humidity
00:00 +9°C° 0 mm 1 mps 748 mmHg 94%
01:00 +9°C° 0 mm 1 mps 748 mmHg 95%
02:00 +7°C° 0 mm 2 mps 748 mmHg 97%
03:00 +7°C° 0 mm 2 mps 748 mmHg 96%
04:00 +7°C° 0 mm 2 mps 748 mmHg 96%
05:00 +7°C° 0 mm 2 mps 748 mmHg 96%
06:00 +9°C° 0 mm 2 mps 749 mmHg 86%
07:00 +12°C° 0 mm 2 mps 749 mmHg 77%
08:00 +14°C° 0 mm 2 mps 749 mmHg 67%
09:00 +15°C° 0 mm 2 mps 749 mmHg 61%
10:00 +17°C° 0 mm 2 mps 749 mmHg 55%
11:00 +18°C° 0 mm 2 mps 749 mmHg 49%
12:00 +19°C° 0 mm 2 mps 749 mmHg 47%
13:00 +19°C° 0 mm 2 mps 748 mmHg 46%
14:00 +20°C° 0 mm 2 mps 748 mmHg 44%
15:00 +21°C° 0 mm 1 mps 748 mmHg 48%
16:00 +20°C° 0 mm 1 mps 748 mmHg 52%
17:00 +20°C° 0 mm 1 mps 748 mmHg 56%
18:00 +18°C° 0 mm 1 mps 748 mmHg 62%
19:00 +15°C° 0 mm 1 mps 748 mmHg 69%
20:00 +13°C° 0 mm 1 mps 748 mmHg 75%
21:00 +13°C° 0 mm 1 mps 748 mmHg 77%
22:00 +12°C° 0 mm 1 mps 748 mmHg 79%
23:00 +12°C° 0 mm 1 mps 749 mmHg 82%

Day after tomorrow, 15 August, Saturday

Time Temperature Precipitation Wind Pressure Humidity
00:00 +12°C° 0 mm 1 mps 749 mmHg 83%
01:00 +12°C° 0 mm 1 mps 749 mmHg 84%
02:00 +11°C° 0 mm 1 mps 749 mmHg 85%
03:00 +12°C° 0 mm 1 mps 748 mmHg 84%
04:00 +12°C° 0 mm 1 mps 748 mmHg 83%
05:00 +12°C° 0 mm 1 mps 748 mmHg 83%
06:00 +13°C° 0 mm 1 mps 748 mmHg 80%
07:00 +14°C° 0 mm 1 mps 748 mmHg 77%
08:00 +15°C° 0 mm 1 mps 748 mmHg 74%
09:00 +16°C° 0 mm 1 mps 748 mmHg 75%
10:00 +16°C° 0 mm 1 mps 748 mmHg 75%
11:00 +16°C° 0 mm 1 mps 748 mmHg 76%
12:00 +16°C° 0 mm 1 mps 748 mmHg 75%
13:00 +17°C° 0 mm 2 mps 748 mmHg 75%
14:00 +17°C° 0 mm 2 mps 748 mmHg 74%
15:00 +16°C° 0.1 mm 2 mps 747 mmHg 80%
16:00 +15°C° 0.1 mm 1 mps 747 mmHg 87%
17:00 +15°C° 0.1 mm 1 mps 747 mmHg 93%
18:00 +14°C° 0 mm 1 mps 747 mmHg 94%
19:00 +14°C° 0 mm 1 mps 746 mmHg 96%
20:00 +14°C° 0 mm 1 mps 746 mmHg 97%
21:00 +14°C° 0 mm 1 mps 746 mmHg 97%
22:00 +14°C° 0 mm 1 mps 746 mmHg 97%
23:00 +14°C° 0 mm 1 mps 746 mmHg 97%

16 August, Sunday

Time Temperature Precipitation Wind Pressure Humidity
00:00 +14°C° 0 mm 1 mps 746 mmHg 97%
01:00 +14°C° 0 mm 1 mps 746 mmHg 98%
02:00 +13°C° 0 mm 1 mps 745 mmHg 98%
03:00 +13°C° 0 mm 1 mps 745 mmHg 98%
04:00 +14°C° 0 mm 1 mps 745 mmHg 98%
05:00 +14°C° 0 mm 1 mps 744 mmHg 98%
06:00 +15°C° 0 mm 2 mps 744 mmHg 95%
07:00 +17°C° 0 mm 2 mps 744 mmHg 91%
08:00 +18°C° 0 mm 2 mps 744 mmHg 88%
09:00 +20°C° 0.4 mm 3 mps 744 mmHg 84%
10:00 +21°C° 0.4 mm 3 mps 744 mmHg 81%
11:00 +22°C° 0.4 mm 4 mps 744 mmHg 77%
12:00 +23°C° 0.1 mm 4 mps 744 mmHg 69%
13:00 +25°C° 0.1 mm 4 mps 744 mmHg 61%
14:00 +26°C° 0.1 mm 4 mps 744 mmHg 53%
15:00 +25°C° 0 mm 3 mps 743 mmHg 57%
16:00 +25°C° 0 mm 3 mps 743 mmHg 62%
17:00 +24°C° 0 mm 2 mps 743 mmHg 66%
18:00 +21°C° 0 mm 2 mps 743 mmHg 74%
19:00 +19°C° 0 mm 2 mps 743 mmHg 81%
20:00 +18°C° 0 mm 2 mps 743 mmHg 89%
21:00 +17°C° 0.3 mm 2 mps 743 mmHg 91%
22:00 +17°C° 0.3 mm 2 mps 743 mmHg 94%
23:00 +16°C° 0.3 mm 2 mps 743 mmHg 96%

17 August, Monday

Time Temperature Precipitation Wind Pressure Humidity
00:00 +16°C° 0 mm 2 mps 743 mmHg 96%
01:00 +15°C° 0 mm 2 mps 743 mmHg 96%
02:00 +14°C° 0 mm 1 mps 743 mmHg 97%
03:00 +14°C° 0 mm 1 mps 743 mmHg 97%
04:00 +14°C° 0 mm 1 mps 743 mmHg 97%
05:00 +13°C° 0 mm 1 mps 743 mmHg 97%
06:00 +15°C° 0 mm 1 mps 744 mmHg 92%
07:00 +16°C° 0 mm 1 mps 744 mmHg 87%
08:00 +19°C° 0 mm 1 mps 744 mmHg 82%
09:00 +20°C° 0.1 mm 1 mps 744 mmHg 74%
10:00 +21°C° 0.1 mm 1 mps 744 mmHg 67%
11:00 +22°C° 0.1 mm 1 mps 744 mmHg 59%
12:00 +23°C° 0 mm 2 mps 743 mmHg 56%
13:00 +23°C° 0 mm 2 mps 743 mmHg 52%
14:00 +24°C° 0 mm 2 mps 743 mmHg 48%
15:00 +23°C° 0 mm 2 mps 743 mmHg 51%
16:00 +23°C° 0 mm 2 mps 743 mmHg 54%
17:00 +22°C° 0 mm 1 mps 742 mmHg 57%
18:00 +20°C° 0 mm 1 mps 742 mmHg 63%
19:00 +18°C° 0 mm 1 mps 742 mmHg 68%
20:00 +14°C° 0 mm 1 mps 742 mmHg 73%
21:00 +13°C° 0 mm 1 mps 743 mmHg 76%
22:00 +13°C° 0 mm 1 mps 743 mmHg 80%
23:00 +12°C° 0 mm 1 mps 743 mmHg 83%

18 August, Tuesday

Time Temperature Precipitation Wind Pressure Humidity
00:00 +11°C° 0 mm 1 mps 743 mmHg 81%
01:00 +11°C° 0 mm 1 mps 743 mmHg 80%
02:00 +10°C° 0 mm 1 mps 743 mmHg 78%
03:00 +10°C° 0 mm 1 mps 743 mmHg 78%
04:00 +9°C° 0 mm 1 mps 743 mmHg 78%
05:00 +9°C° 0 mm 1 mps 743 mmHg 78%
06:00 +12°C° 0 mm 1 mps 743 mmHg 71%
07:00 +14°C° 0 mm 1 mps 743 mmHg 64%
08:00 +16°C° 0 mm 1 mps 743 mmHg 56%
09:00 +19°C° 0 mm 1 mps 743 mmHg 52%
10:00 +20°C° 0 mm 1 mps 743 mmHg 48%
11:00 +22°C° 0 mm 1 mps 743 mmHg 44%
12:00 +22°C° 0 mm 1 mps 742 mmHg 44%
13:00 +21°C° 0 mm 2 mps 742 mmHg 43%
14:00 +23°C° 0 mm 2 mps 742 mmHg 42%
15:00 +22°C° 0 mm 1 mps 742 mmHg 48%
16:00 +22°C° 0 mm 1 mps 742 mmHg 53%
17:00 +22°C° 0 mm 1 mps 742 mmHg 58%
18:00 +20°C° 0 mm 1 mps 742 mmHg 63%
19:00 +18°C° 0 mm 1 mps 742 mmHg 68%
20:00 +15°C° 0 mm 1 mps 742 mmHg 73%
21:00 +14°C° 0 mm 1 mps 742 mmHg 77%
22:00 +14°C° 0 mm 1 mps 742 mmHg 80%
23:00 +13°C° 0 mm 1 mps 742 mmHg 84%
Show more